Location: *
(58.7167°N, 26.1833°E)
Time: 05:47:08
(UTC+00:00)

Meteor 1-11 Rocket - Pass Details

Date: 25 August 2019
Orbit: 831 x 916 km, 81.2° (Epoch: 17 September)

Event Time Altitude Azimuth Distance (km) Brightness Sun altitude
Rises 18:13:54 0° 173° (S) 3,534 6.6 -5.2°
Reaches altitude 10° 18:16:25 10° 168° (SSE) 2,602 5.8 -5.5°
Maximum altitude 18:22:08 50° 95° (E) 1,160 4.1 -6.1°
Drops below altitude 10° 18:27:52 10° 22° (NNE) 2,619 6.4 -6.7°
Sets 18:30:25 0° 18° (NNE) 3,559 7.2 -7.0°
